www.pogodaiklimat.ru

Погода и климат >> Архив погоды >> Россия >> Алтайский край >> Алейская


ПОГОДА в Алейской

  • Прогноз погоды в Алейской
  • Монитор погоды в Алейской
  • Климат города

АРХИВ ПОГОДЫ в Алейской

Время (UTC), дата Ветер
(напр.,м/с)
 
Видим.   Явления Облачность Т
(С)
Тd
(С)
f
(%)
Тe
(С)
Тes
(С)
Комфортность P
(гПа)
Po
(гПа)
Тmin
(С)
Tmax
(С)
R
(мм)
R24
(мм)
S
(см)
12 15.11 С 3 20 км 8/8 600 м
[Sc]
-8.1 -10.4 83 -14 -14 1031.9 1008.8 -2.0 0.0
15 15.11 С 3 20 км 6/6 600 м
[Sc]
-10.1 -12.7 81 -16 -16 1033.0 1009.8
18 15.11 С 2 20 км ясно -13.5 -15.9 82 -18 -18 1033.6 1010.0
21 15.11 СВ 2 20 км 4/4 600 м
[Sc]
-14.1 -16.4 83 -19 -19 1034.1 1010.5
00 16.11 С 1 20 км 3/3 1000 м
[Sc]
-17.7 -20.0 82 -21 -21 1035.3 1011.3 -17.7 3
03 16.11 С 1 4000 м дымка ясно -17.5 -20.0 81 -20 -20 1036.8 1012.8 -18.7
06 16.11 С 1 10 км ясно -11.8 -15.7 73 -14 -12 1036.4 1012.9
09 16.11 СВ 1 10 км ясно -10.1 -14.8 68 -12 -12 1037.0 1013.6
12 16.11 штиль 0 10 км ясно -13.9 -16.2 83 -14 -14 1038.5 1014.8 -9.6
15 16.11 Ю 2 10 км 6/0
[Ci fib]
-13.1 -14.8 87 -18 -18 1038.8 1015.2
18 16.11 Ю 1 4000 м дымка 10/0
[Cs]
-9.8 -11.4 88 -12 -12 1037.6 1014.3
21 16.11 ЮВ 1 4000 м дымка 10/0
[Cs]
-8.8 -10.3 89 -11 -11 1036.8 1013.6
00 17.11 Ю 2 4000 м дымка 10/0
[Ac As]
-6.5 -7.9 90 -11 -11 1035.2 1012.2 -15.8 3
03 17.11 Ю 3 10 км 10/10 300 м
[St]
-6.5 -8.8 84 -12 -12 1035.0 1012.1
06 17.11 Ю 4 20 км ясно -3.5 -7.6 73 -9 -8 1033.5 1010.8
09 17.11 Ю 5
{10}
20 км 3/3 600 м
[Sc]
+1.5 -5.1 61 -4 -3 1031.3 1009.1
12 17.11 Ю 3
{11}
20 км ясно -1.5 -5.2 76 -6 -6 1031.6 1009.1 +1.5
15 17.11 Ю 4 10 км 6/6 600 м
[Sc]
-0.0 -4.4 72 -5 -5 1031.1 1008.7
18 17.11 Ю 4
{10}
10 км 4/4 1000 м
[Sc]
-0.5 -4.6 74 -6 -6 1030.5 1008.2
21 17.11 Ю 3
{10}
10 км 3/3 1000 м
[Sc]
-1.5 -5.2 76 -6 -6 1029.8 1007.4
00 18.11 Ю 1 10 км 3/3 600 м
[Sc]
-6.0 -7.6 88 -8 -8 1029.3 1006.5 -6.0 2
03 18.11 ЮВ 1 4000 м дымка 8/0
[Cs]
-6.1 -7.5 90 -9 -8 1028.3 1005.5 -6.9
06 18.11 Ю 3 20 км 9/0
[Cs]
+0.9 -5.2 64 -3 -2 1025.6 1003.5
09 18.11 Ю 3
{10}
50 км 8/0
[Ci sp]
+3.1 -5.3 54 -0 0 1023.2 1001.3
12 18.11 ЮВ 1 50 км 9/3 1000 м
[Sc Ci fib]
-1.2 -5.6 72 -3 -3 1022.7 1000.5 +3.4
15 18.11 Ю 2 50 км 10/10 600 м
[Sc]
+0.1 -5.0 69 -3 -3 1021.2 999.1
18 18.11 Ю 3 50 км 10/10 600 м
[Sc]
+0.6 -4.8 67 -4 -4 1020.4 998.4
21 18.11 Ю 5-11
{11}
50 км 9/9 600 м
[Sc]
+1.8 -4.0 65 -3 -3 1020.7 998.7
00 19.11 Ю 3
{11}
50 км 9/4 600 м
[Sc Ci fib]
+0.8 -3.8 71 -3 -3 1022.1 1000.1 -1.6 1
03 19.11 Ю 4 4000 м слабый ливневой снег 10/10 600 м
[Cb cap]
+0.6 -3.3 75 -5 -5 1023.7 1001.6
06 19.11 Ю 3 4000 м слабый ливневой снег 10/10 600 м
[Cb cap]
-0.0 -1.2 92 -5 -5 1025.3 1003.1
09 19.11 З 3
{10}
4000 м слабый ливневой снег 10/10 600 м
[Cb cap]
-1.5 -3.0 89 -7 -7 1028.1 1005.7
12 19.11 ЮЗ 3
{10}
10 км {ливн. осадки} 8/8 600 м
[Sc]
-3.3 -6.9 76 -8 -8 1031.7 1009.1 +0.8 3
15 19.11 Ю 3 4000 м слабый ливневой снег 10/10 600 м
[Cb cap]
-3.3 -6.0 82 -8 -8 1033.9 1011.3
18 19.11 Ю 4 10 км {ливн. осадки} 10/10 600 м
[Sc]
-3.3 -5.4 85 -9 -9 1034.3 1011.6
21 19.11 Ю 4 4000 м слабый ливневой снег 10/10 600 м
[Cb cap]
-3.2 -4.5 91 -9 -9 1034.1 1011.5
00 20.11 Ю 5
{10}
4000 м слабый ливневой снег 10/10 600 м
[Cb cap]
-3.8 -5.4 89 -11 -11 1034.3 1011.6 -3.8 0.9 7
03 20.11 Ю 5
{10}
1000 м ливневой снег {метель} 10/10 600 м
[Cb cap]
-3.6 -5.2 89 -11 -11 1034.8 1012.1 -3.8
06 20.11 Ю 5
{10}
4000 м слабый ливневой снег {метель} 10/10 600 м
[Cb cap]
-2.2 -4.4 85 -9 -9 1036.2 1013.6
09 20.11 Ю 4 10 км {ливн. осадки, метель} 10/10 600 м
[Sc]
-1.5 -3.8 84 -7 -7 1036.8 1014.3
12 20.11 Ю 4 4000 м слабый ливневой снег {метель} 10/10 600 м
[Cb cap]
-2.1 -3.9 87 -8 -8 1038.1 1015.4 -1.4 3
15 20.11 Ю 4 10 км {ливн. осадки} 10/10 300 м
[Sc]
-2.5 -5.1 82 -8 -8 1038.4 1015.7
18 20.11 Ю 4 10 км {ливн. осадки} 10/10 300 м
[Sc]
-2.5 -4.5 86 -8 -8 1037.9 1015.2
21 20.11 Ю 4 4000 м слабый ливневой снег 10/10 600 м
[Cb cap]
-2.6 -4.1 89 -9 -9 1037.5 1014.8
00 21.11 Ю 4 4000 м слабый ливневой снег 10/10 600 м
[Cb cap]
-2.0 -3.5 89 -8 -8 1037.5 1014.9 -2.9 1 9
03 21.11 Ю 4 1000 м ливневой снег 10/10 600 м
[Cb cap]
-2.2 -3.6 90 -8 -8 1038.1 1015.4
06 21.11 Ю 4 10 км {ливн. осадки} 10/10 600 м
[Sc diur, vesp]
-1.6 -4.1 83 -7 -7 1038.4 1015.8
09 21.11 Ю 4 20 км 10/10 600 м
[Sc diur, vesp]
-2.1 -5.0 80 -8 -8 1038.6 1016.0
12 21.11 Ю 4 20 км 10/10 600 м
[Sc]
-3.6 -6.4 81 -10 -10 1039.7 1016.9 -1.5 0.6
15 21.11 Ю 3 20 км 10/10 600 м
[Sc]
-5.6 -8.1 83 -11 -11 1039.5 1016.5
18 21.11 Ю 4 20 км 10/10 600 м
[Sc]
-4.6 -7.7 79 -11 -11 1039.1 1016.2
21 21.11 Ю 4
{10}
20 км 10/10 600 м
[Sc]
-5.6 -9.5 74 -12 -12 1038.9 1015.9
00 22.11 Ю 4 20 км 10/10 600 м
[Sc]
-6.8 -10.5 75 -13 -13 1039.0 1015.9 -6.8 9
03 22.11 Ю 4
{10}
10 км 9/8 600 м
[Sc Ac trans]
-7.6 -11.4 74 -14 -14 1039.2 1016.1 -7.8
06 22.11 Ю 4 10 км 9/9 600 м
[Sc]
-4.8 -10.0 67 -11 -11 1038.9 1016.0

 

Местоположение метеостанции Алейская (Алтайский край, Россия): широта 52.52 долгота 82.77 высота над уровнем моря 176 м.

В архиве по умолчанию представлена погода в Алейской за последнюю неделю. Архивные данные за месяц целиком и за предыдущие месяцы, начиная с января 2011 года, Вы можете получить, выбрав интересующий диапазон дат из раскрывающегося списка и нажав кнопку "Ввод!".

Внимание! Время в таблицах - всемирное. Для получения местного времени необходимо прибавить поправку, которая в Алейской равна 7 ч.

Смотрите также архив погоды в соседних городах и на ближайших метеорологических станциях:

Погода в Шипуново (Алтайский край, Россия) (51 км)
Погода в Усть-Калманке (Алтайский край, Россия) (61 км)
Погода в Усть-Чарышской Пристани (Алтайский край, Россия) (63 км)
Погода в Ребрихе (Алтайский край, Россия) (69 км)
Погода в Мамонтово (Алтайский край, Россия) (80 км)
Погода в Поспелихе (Алтайский край, Россия) (86 км)
Погода в Краснощеково (Алтайский край, Россия) (95 км)
Погода в Шелаболихе (Алтайский край, Россия) (101 км)
Погода в Барнауле (Алтайский край, Россия) (113 км)
Погода в Троицком (Алтайский край, Россия) (138 км)

Пояснения к столбцам:

Ветер - указаны скорость ветра в м/с - средняя за 10 мин, порывы в срок и между сроками (в фигурных скобках) и направление, откуда дует ветер: С - северный, СВ - северо-восточный, В - восточный, ЮВ - юго-восточный, Ю - южный, ЮЗ - юго-западный, З - западный, СЗ - северо-западный.
Видимость - горизонтальная дальность видимости в метрах или километрах. При видимости от 1 до 10 км при отсутствии осадков обычно наблюдается дымка, при ухудшении видимости до 1 км и менее - туман. В сухую погоду видимость может ухудшаться дымом, пылью или мглою.
Явления - указаны атмосферные явления, наблюдавшиеся в срок или в последний час перед сроком; фигурными скобками обозначены явления, наблюдавшиеся между сроками (за 1-3 часа до срока); квадратными скобками обозначены град или гололедные отложения с указанием их диаметра в мм.
Облачность - указаны через наклонную черту общая и нижняя облачность в баллах и высота нижней границы облаков в метрах; квадратными скобками обозначены формы облаков: Ci - перистые, Cs - перисто-слоистые, Cc - перисто-кучевые, Ac - высококучевые, As - высокослоистые, Sc - слоисто-кучевые, Ns - слоисто-дождевые, Cu - кучевые, Cb - кучево-дождевые. Подробнее классификацию облаков см. в Атласе облаков (PDF).
T - Температура воздуха - температура, измеренная на высоте 2 м над землей.
Td - Температура точки росы - температура, при понижении до которой содержащийся в воздухе водяной пар достигнет насыщения.
f - Относительная влажность воздуха - влажноcть воздуха, измеренная на высоте 2 м над землей.
Te - Эффективная температура - температура, которую ощущает одетый по сезону человек в тени. Характеристика душности погоды. При расчете учитывается влияние влажности воздуха и скорости ветра на теплоощущения человека.
Tes - Эффективная температура на солнце - температура, которую ощущает человек, с поправкой на солнечный нагрев. Характеристика знойности погоды. Зависит от высоты солнца над горизонтом, облачности и скорости ветра. Ночью, в пасмурную погоду, а также при ветре 12 м/с и более поправка равна нулю.
P - Атмосферное давление - приведенное к уровню моря атмосферное давление.
Po - Атмосферное давление - измеренное на уровне метеостанции атмосферное давление.
Tmin - Минимальная температура - минимум температуры воздуха на высоте 2 м над землей.
Tmax - Максимальная температура - максимум температуры воздуха на высоте 2 м над землей.
R - Количество осадков - Количество выпавших осадков за период времени, мм. При наведении курсора мыши на число - период времени, за который выпало указанное количество осадков.
R24 - Количество осадков - Количество выпавших осадков за 24 часа, мм.
S - Снежный покров - Высота снежного покрова, см. При наведении курсора мыши на число - состояние снежного покрова и степень покрытия местности в баллах.